Location: Palomar Mountain Lodge
(33.3110°N, 116.8495°W)
Time: 07:18:06
(UTC-08:00)

Atlas Centaur 2 - Pass Details

Date: 13 December 2025
Orbit: 456 x 1249 km, 30.4° (Epoch: 19 January)

Event Time Altitude Azimuth Distance (km) Brightness Sun altitude
Rises 17:46:21 0° 213° (SSW) 2,476 5.6 -13.4°
Reaches altitude 10° 17:49:28 10° 184° (S) 1,573 3.9 -14.0°
Maximum altitude 17:51:10 13° 155° (SSE) 1,403 3.3 -14.3°
Enters shadow 17:52:38 11° 129° (SE) 1,544 3.3 -14.6°
